Tracking 29892 objects as of 21-Nov-2024
HD Live streaming from Space Station
objects crossing your sky now

STARLINK-31953

Track STARLINK-31953 now!
10-day predictions
STARLINK-31953 is classified as:


NORAD ID: 59898
Int'l Code: 2024-100P
Perigee: 450.3 km
Apogee: 451.8 km
Inclination: 43.0 °
Period: 93.5 minutes
Semi major axis: 6822 km
RCS: Unknown
Launch date: May 28, 2024
Source: United States (US)
Launch site: AIR FORCE EASTERN TEST RANGE (AFETR)
Your satellite tracking list
Your tracking list is empty




NASA's NSSDC Master Catalog

Two Line Element Set (TLE):
1 59898U 24100P   24325.41599244  .00004853  00000-0  12320-3 0  9991
2 59898  43.0024 299.3673 0001045 279.0501  81.0237 15.40742498 28440
Source of the keplerian elements: AFSPC